owner,sensor,date,latitude,longitude,relative_humidity,qcFlag 
COMPS,ioos:station:USF.COMPS:C10:1,2015-08-01T00:05:00Z,27.1690,-82.9260,81.14,1111122 
COMPS,ioos:station:USF.COMPS:C10:1,2015-08-01T00:35:00Z,27.1690,-82.9260,74.04,1111122 
COMPS,ioos:station:USF.COMPS:C10:1,2015-08-01T01:05:00Z,27.1690,-82.9260,78.52,1111122 
COMPS,ioos:station:USF.COMPS:C10:1,2015-08-01T01:35:00Z,27.1690,-82.9260,70.08,1111122 
COMPS,ioos:station:USF.COMPS:C10:1,2015-08-01T02:05:00Z,27.1690,-82.9260,79.83,1111122 
COMPS,ioos:station:USF.COMPS:C10:1,2015-08-01T02:35:00Z,27.1690,-82.9260,81.08,1111122 
COMPS,ioos:station:USF.COMPS:C10:1,2015-08-01T04:05:00Z,27.1690,-82.9260,75.32,1111122 
COMPS,ioos:station:USF.COMPS:C10:1,2015-08-01T04:35:00Z,27.1690,-82.9260,78.06,1111122 
COMPS,ioos:station:USF.COMPS:C10:1,2015-08-01T05:05:00Z,27.1690,-82.9260,79.65,1111122 
COMPS,ioos:station:USF.COMPS:C10:1,2015-08-01T05:35:00Z,27.1690,-82.9260,78.41,1111122 
COMPS,ioos:station:USF.COMPS:C10:1,2015-08-01T06:05:00Z,27.1690,-82.9260,76.11,1111122 
COMPS,ioos:station:USF.COMPS:C10:1,2015-08-01T06:35:00Z,27.1690,-82.9260,71.61,1111122 
COMPS,ioos:station:USF.COMPS:C10:1,2015-08-01T07:05:00Z,27.1690,-82.9260,78.36,1111122 
COMPS,ioos:station:USF.COMPS:C10:1,2015-08-01T07:35:00Z,27.1690,-82.9260,74.7,1111122 
COMPS,ioos:station:USF.COMPS:C10:1,2015-08-01T08:05:00Z,27.1690,-82.9260,74.25,1111122 
COMPS,ioos:station:USF.COMPS:C10:1,2015-08-01T08:35:00Z,27.1690,-82.9260,74.5,1111122 
COMPS,ioos:station:USF.COMPS:C10:1,2015-08-01T09:05:00Z,27.1690,-82.9260,77.23,1111122 
COMPS,ioos:station:USF.COMPS:C10:1,2015-08-01T09:35:00Z,27.1690,-82.9260,77.83,1111122 
COMPS,ioos:station:USF.COMPS:C10:1,2015-08-01T10:05:00Z,27.1690,-82.9260,77.69,1111122 
COMPS,ioos:station:USF.COMPS:C10:1,2015-08-01T10:35:00Z,27.1690,-82.9260,80.07,1111122 
COMPS,ioos:station:USF.COMPS:C10:1,2015-08-01T11:05:00Z,27.1690,-82.9260,78.85,1111122 
COMPS,ioos:station:USF.COMPS:C10:1,2015-08-01T11:35:00Z,27.1690,-82.9260,76.72,1111122 
COMPS,ioos:station:USF.COMPS:C10:1,2015-08-01T12:05:00Z,27.1690,-82.9260,79.1,1111122 
COMPS,ioos:station:USF.COMPS:C10:1,2015-08-01T12:35:00Z,27.1690,-82.9260,79.31,1111122 
COMPS,ioos:station:USF.COMPS:C10:1,2015-08-01T13:05:00Z,27.1690,-82.9260,81.14,1111122 
COMPS,ioos:station:USF.COMPS:C10:1,2015-08-01T13:35:00Z,27.1690,-82.9260,82.57,1111122 
COMPS,ioos:station:USF.COMPS:C10:1,2015-08-01T14:05:00Z,27.1690,-82.9260,81.9,1111122 
COMPS,ioos:station:USF.COMPS:C10:1,2015-08-01T14:35:00Z,27.1690,-82.9260,83.78,1111122 
COMPS,ioos:station:USF.COMPS:C10:1,2015-08-01T15:05:00Z,27.1690,-82.9260,84.63,1111122 
COMPS,ioos:station:USF.COMPS:C10:1,2015-08-01T15:35:00Z,27.1690,-82.9260,82.18,1111122 
COMPS,ioos:station:USF.COMPS:C10:1,2015-08-01T16:05:00Z,27.1690,-82.9260,83.56,1111122 
COMPS,ioos:station:USF.COMPS:C10:1,2015-08-01T16:35:00Z,27.1690,-82.9260,82.83,1111122 
COMPS,ioos:station:USF.COMPS:C10:1,2015-08-01T17:05:00Z,27.1690,-82.9260,78.29,1111122 
COMPS,ioos:station:USF.COMPS:C10:1,2015-08-01T17:35:00Z,27.1690,-82.9260,81.99,1111122 
COMPS,ioos:station:USF.COMPS:C10:1,2015-08-01T18:05:00Z,27.1690,-82.9260,83.22,1111122 
COMPS,ioos:station:USF.COMPS:C10:1,2015-08-01T18:35:00Z,27.1690,-82.9260,83.24,1111122 
COMPS,ioos:station:USF.COMPS:C10:1,2015-08-01T19:05:00Z,27.1690,-82.9260,82.64,1111122 
COMPS,ioos:station:USF.COMPS:C10:1,2015-08-01T19:35:00Z,27.1690,-82.9260,82.28,1111122 
COMPS,ioos:station:USF.COMPS:C10:1,2015-08-01T20:05:00Z,27.1690,-82.9260,82.73,1111122 
COMPS,ioos:station:USF.COMPS:C10:1,2015-08-01T20:35:00Z,27.1690,-82.9260,81.57,1111122 
COMPS,ioos:station:USF.COMPS:C10:1,2015-08-01T21:05:00Z,27.1690,-82.9260,75.21,1111122 
COMPS,ioos:station:USF.COMPS:C10:1,2015-08-01T21:35:00Z,27.1690,-82.9260,76.51,1111122 
COMPS,ioos:station:USF.COMPS:C10:1,2015-08-01T22:05:00Z,27.1690,-82.9260,76.42,1111122 
COMPS,ioos:station:USF.COMPS:C10:1,2015-08-01T22:35:00Z,27.1690,-82.9260,77.48,1111122 
COMPS,ioos:station:USF.COMPS:C10:1,2015-08-02T04:05:00Z,27.1690,-82.9260,81.14,1111122 
COMPS,ioos:station:USF.COMPS:C10:1,2015-08-02T04:35:00Z,27.1690,-82.9260,74.88,1111122 
COMPS,ioos:station:USF.COMPS:C10:1,2015-08-02T05:05:00Z,27.1690,-82.9260,86.22,1111122 
COMPS,ioos:station:USF.COMPS:C10:1,2015-08-02T05:35:00Z,27.1690,-82.9260,90.27,1111122 
COMPS,ioos:station:USF.COMPS:C10:1,2015-08-02T06:05:00Z,27.1690,-82.9260,69.38,1111122 
COMPS,ioos:station:USF.COMPS:C10:1,2015-08-02T06:35:00Z,27.1690,-82.9260,77.88,1111122 
COMPS,ioos:station:USF.COMPS:C10:1,2015-08-02T07:05:00Z,27.1690,-82.9260,87.43,1111122 
COMPS,ioos:station:USF.COMPS:C10:1,2015-08-02T07:35:00Z,27.1690,-82.9260,70.86,1111122 
COMPS,ioos:station:USF.COMPS:C10:1,2015-08-02T08:05:00Z,27.1690,-82.9260,78.34,1111122 
COMPS,ioos:station:USF.COMPS:C10:1,2015-08-02T08:35:00Z,27.1690,-82.9260,71.7,1111122 
COMPS,ioos:station:USF.COMPS:C10:1,2015-08-02T09:05:00Z,27.1690,-82.9260,74.81,1111122 
COMPS,ioos:station:USF.COMPS:C10:1,2015-08-02T09:35:00Z,27.1690,-82.9260,78.11,1111122 
COMPS,ioos:station:USF.COMPS:C10:1,2015-08-02T10:05:00Z,27.1690,-82.9260,78.61,1111122 
COMPS,ioos:station:USF.COMPS:C10:1,2015-08-02T10:35:00Z,27.1690,-82.9260,79.81,1111122 
COMPS,ioos:station:USF.COMPS:C10:1,2015-08-02T11:05:00Z,27.1690,-82.9260,81.29,1111122 
COMPS,ioos:station:USF.COMPS:C10:1,2015-08-02T11:35:00Z,27.1690,-82.9260,83.74,1111122 
COMPS,ioos:station:USF.COMPS:C10:1,2015-08-02T12:05:00Z,27.1690,-82.9260,83.24,1111122 
COMPS,ioos:station:USF.COMPS:C10:1,2015-08-02T12:35:00Z,27.1690,-82.9260,82.73,1111122 
COMPS,ioos:station:USF.COMPS:C10:1,2015-08-02T13:05:00Z,27.1690,-82.9260,66.42,1111122 
COMPS,ioos:station:USF.COMPS:C10:1,2015-08-02T13:35:00Z,27.1690,-82.9260,73.97,1111122 
COMPS,ioos:station:USF.COMPS:C10:1,2015-08-02T14:05:00Z,27.1690,-82.9260,75.06,1111122 
COMPS,ioos:station:USF.COMPS:C10:1,2015-08-02T14:35:00Z,27.1690,-82.9260,72.05,1111122 
COMPS,ioos:station:USF.COMPS:C10:1,2015-08-02T15:05:00Z,27.1690,-82.9260,76.73,1111122 
COMPS,ioos:station:USF.COMPS:C10:1,2015-08-02T15:35:00Z,27.1690,-82.9260,76.75,1111122 
COMPS,ioos:station:USF.COMPS:C10:1,2015-08-02T16:05:00Z,27.1690,-82.9260,71.46,1111122 
COMPS,ioos:station:USF.COMPS:C10:1,2015-08-02T16:35:00Z,27.1690,-82.9260,76.3,1111122 
COMPS,ioos:station:USF.COMPS:C10:1,2015-08-02T17:05:00Z,27.1690,-82.9260,82.55,1111122 
COMPS,ioos:station:USF.COMPS:C10:1,2015-08-02T17:35:00Z,27.1690,-82.9260,85.52,1111122 
COMPS,ioos:station:USF.COMPS:C10:1,2015-08-02T18:05:00Z,27.1690,-82.9260,78.4,1111122 
COMPS,ioos:station:USF.COMPS:C10:1,2015-08-02T18:35:00Z,27.1690,-82.9260,75.8,1111122 
COMPS,ioos:station:USF.COMPS:C10:1,2015-08-02T19:05:00Z,27.1690,-82.9260,75.28,1111122 
COMPS,ioos:station:USF.COMPS:C10:1,2015-08-02T19:35:00Z,27.1690,-82.9260,71.89,1111122 
COMPS,ioos:station:USF.COMPS:C10:1,2015-08-02T20:05:00Z,27.1690,-82.9260,73.29,1111122 
COMPS,ioos:station:USF.COMPS:C10:1,2015-08-02T20:35:00Z,27.1690,-82.9260,74.08,1111122 
COMPS,ioos:station:USF.COMPS:C10:1,2015-08-02T21:05:00Z,27.1690,-82.9260,73.65,1111122 
COMPS,ioos:station:USF.COMPS:C10:1,2015-08-02T21:35:00Z,27.1690,-82.9260,68.16,1111122 
COMPS,ioos:station:USF.COMPS:C10:1,2015-08-02T22:05:00Z,27.1690,-82.9260,69.8,1111122 
COMPS,ioos:station:USF.COMPS:C10:1,2015-08-02T22:35:00Z,27.1690,-82.9260,68.47,1111122 
COMPS,ioos:station:USF.COMPS:C10:1,2015-08-02T23:05:00Z,27.1690,-82.9260,70.64,1111122 
COMPS,ioos:station:USF.COMPS:C10:1,2015-08-02T23:35:00Z,27.1690,-82.9260,68.68,1111122 
COMPS,ioos:station:USF.COMPS:C10:1,2015-08-03T00:05:00Z,27.1690,-82.9260,68.69,1111122 
COMPS,ioos:station:USF.COMPS:C10:1,2015-08-03T00:35:00Z,27.1690,-82.9260,67.34,1111122 
COMPS,ioos:station:USF.COMPS:C10:1,2015-08-03T02:05:00Z,27.1690,-82.9260,66.89,1111122 
COMPS,ioos:station:USF.COMPS:C10:1,2015-08-03T02:35:00Z,27.1690,-82.9260,71.56,1111122 
COMPS,ioos:station:USF.COMPS:C10:1,2015-08-03T04:05:00Z,27.1690,-82.9260,71.47,1111122 
COMPS,ioos:station:USF.COMPS:C10:1,2015-08-03T04:35:00Z,27.1690,-82.9260,81.59,1111122 
COMPS,ioos:station:USF.COMPS:C10:1,2015-08-03T05:05:00Z,27.1690,-82.9260,75.69,1111122 
COMPS,ioos:station:USF.COMPS:C10:1,2015-08-03T05:35:00Z,27.1690,-82.9260,73.18,1111122 
COMPS,ioos:station:USF.COMPS:C10:1,2015-08-03T06:05:00Z,27.1690,-82.9260,68.13,1111122 
COMPS,ioos:station:USF.COMPS:C10:1,2015-08-03T06:35:00Z,27.1690,-82.9260,66.96,1111122 
COMPS,ioos:station:USF.COMPS:C10:1,2015-08-03T07:05:00Z,27.1690,-82.9260,69.1,1111122 
COMPS,ioos:station:USF.COMPS:C10:1,2015-08-03T07:35:00Z,27.1690,-82.9260,72.9,1111122 
COMPS,ioos:station:USF.COMPS:C10:1,2015-08-03T08:05:00Z,27.1690,-82.9260,75.56,1111122 
COMPS,ioos:station:USF.COMPS:C10:1,2015-08-03T08:35:00Z,27.1690,-82.9260,77.0,1111122 
COMPS,ioos:station:USF.COMPS:C10:1,2015-08-03T09:05:00Z,27.1690,-82.9260,77.51,1111122 
COMPS,ioos:station:USF.COMPS:C10:1,2015-08-03T09:35:00Z,27.1690,-82.9260,73.03,1111122 
COMPS,ioos:station:USF.COMPS:C10:1,2015-08-03T10:05:00Z,27.1690,-82.9260,73.99,1111122 
COMPS,ioos:station:USF.COMPS:C10:1,2015-08-03T10:35:00Z,27.1690,-82.9260,79.5,1111122 
COMPS,ioos:station:USF.COMPS:C10:1,2015-08-03T11:05:00Z,27.1690,-82.9260,86.39,1111122 
COMPS,ioos:station:USF.COMPS:C10:1,2015-08-03T11:35:00Z,27.1690,-82.9260,87.62,1111122 
COMPS,ioos:station:USF.COMPS:C10:1,2015-08-03T12:05:00Z,27.1690,-82.9260,86.36,1111122 
COMPS,ioos:station:USF.COMPS:C10:1,2015-08-03T12:35:00Z,27.1690,-82.9260,87.82,1111122 
COMPS,ioos:station:USF.COMPS:C10:1,2015-08-03T13:05:00Z,27.1690,-82.9260,85.75,1111122 
COMPS,ioos:station:USF.COMPS:C10:1,2015-08-03T13:35:00Z,27.1690,-82.9260,92.44,1111122 
COMPS,ioos:station:USF.COMPS:C10:1,2015-08-03T14:05:00Z,27.1690,-82.9260,90.53,1111122 
COMPS,ioos:station:USF.COMPS:C10:1,2015-08-03T14:35:00Z,27.1690,-82.9260,88.11,1111122 
COMPS,ioos:station:USF.COMPS:C10:1,2015-08-03T15:05:00Z,27.1690,-82.9260,87.99,1111122 
COMPS,ioos:station:USF.COMPS:C10:1,2015-08-03T15:35:00Z,27.1690,-82.9260,82.05,1111122 
COMPS,ioos:station:USF.COMPS:C10:1,2015-08-03T16:05:00Z,27.1690,-82.9260,72.55,1111122 
COMPS,ioos:station:USF.COMPS:C10:1,2015-08-03T16:35:00Z,27.1690,-82.9260,70.8,1111122 
COMPS,ioos:station:USF.COMPS:C10:1,2015-08-03T17:05:00Z,27.1690,-82.9260,71.3,1111122 
COMPS,ioos:station:USF.COMPS:C10:1,2015-08-03T17:35:00Z,27.1690,-82.9260,69.76,1111122 
COMPS,ioos:station:USF.COMPS:C10:1,2015-08-03T18:05:00Z,27.1690,-82.9260,66.44,1111122 
COMPS,ioos:station:USF.COMPS:C10:1,2015-08-03T18:35:00Z,27.1690,-82.9260,62.77,1111122 
COMPS,ioos:station:USF.COMPS:C10:1,2015-08-03T19:05:00Z,27.1690,-82.9260,64.21,1111122 
COMPS,ioos:station:USF.COMPS:C10:1,2015-08-03T19:35:00Z,27.1690,-82.9260,63.09,1111122 
COMPS,ioos:station:USF.COMPS:C10:1,2015-08-03T20:05:00Z,27.1690,-82.9260,64.11,1111122 
COMPS,ioos:station:USF.COMPS:C10:1,2015-08-03T20:35:00Z,27.1690,-82.9260,63.24,1111122 
COMPS,ioos:station:USF.COMPS:C10:1,2015-08-03T21:05:00Z,27.1690,-82.9260,66.24,1111122 
COMPS,ioos:station:USF.COMPS:C10:1,2015-08-03T21:35:00Z,27.1690,-82.9260,74.09,1111122 
COMPS,ioos:station:USF.COMPS:C10:1,2015-08-03T22:05:00Z,27.1690,-82.9260,76.55,1111122 
COMPS,ioos:station:USF.COMPS:C10:1,2015-08-03T22:35:00Z,27.1690,-82.9260,74.19,1111122 
COMPS,ioos:station:USF.COMPS:C10:1,2015-08-03T23:05:00Z,27.1690,-82.9260,71.68,1111122 
COMPS,ioos:station:USF.COMPS:C10:1,2015-08-03T23:35:00Z,27.1690,-82.9260,70.48,1111122 
COMPS,ioos:station:USF.COMPS:C10:1,2015-08-04T00:05:00Z,27.1690,-82.9260,71.21,1111122 
COMPS,ioos:station:USF.COMPS:C10:1,2015-08-04T00:35:00Z,27.1690,-82.9260,73.17,1111122 
COMPS,ioos:station:USF.COMPS:C10:1,2015-08-04T04:05:00Z,27.1690,-82.9260,80.83,1111122 
COMPS,ioos:station:USF.COMPS:C10:1,2015-08-04T04:35:00Z,27.1690,-82.9260,80.09,1111122 
COMPS,ioos:station:USF.COMPS:C10:1,2015-08-04T05:05:00Z,27.1690,-82.9260,78.89,1111122 
COMPS,ioos:station:USF.COMPS:C10:1,2015-08-04T05:35:00Z,27.1690,-82.9260,79.84,1111122 
COMPS,ioos:station:USF.COMPS:C10:1,2015-08-04T06:05:00Z,27.1690,-82.9260,78.69,1111122 
COMPS,ioos:station:USF.COMPS:C10:1,2015-08-04T06:35:00Z,27.1690,-82.9260,79.46,1111122 
COMPS,ioos:station:USF.COMPS:C10:1,2015-08-04T07:05:00Z,27.1690,-82.9260,81.37,1111122 
COMPS,ioos:station:USF.COMPS:C10:1,2015-08-04T07:35:00Z,27.1690,-82.9260,79.39,1111122 
COMPS,ioos:station:USF.COMPS:C10:1,2015-08-04T08:05:00Z,27.1690,-82.9260,80.36,1111122 
COMPS,ioos:station:USF.COMPS:C10:1,2015-08-04T08:35:00Z,27.1690,-82.9260,80.86,1111122 
COMPS,ioos:station:USF.COMPS:C10:1,2015-08-04T09:05:00Z,27.1690,-82.9260,80.34,1111122 
COMPS,ioos:station:USF.COMPS:C10:1,2015-08-04T09:35:00Z,27.1690,-82.9260,78.37,1111122 
COMPS,ioos:station:USF.COMPS:C10:1,2015-08-04T10:05:00Z,27.1690,-82.9260,77.51,1111122 
COMPS,ioos:station:USF.COMPS:C10:1,2015-08-04T10:35:00Z,27.1690,-82.9260,76.48,1111122 
COMPS,ioos:station:USF.COMPS:C10:1,2015-08-04T11:05:00Z,27.1690,-82.9260,75.8,1111122 
COMPS,ioos:station:USF.COMPS:C10:1,2015-08-04T11:35:00Z,27.1690,-82.9260,75.2,1111122 
COMPS,ioos:station:USF.COMPS:C10:1,2015-08-04T12:05:00Z,27.1690,-82.9260,73.93,1111122 
COMPS,ioos:station:USF.COMPS:C10:1,2015-08-04T12:35:00Z,27.1690,-82.9260,74.41,1111122 
COMPS,ioos:station:USF.COMPS:C10:1,2015-08-04T13:05:00Z,27.1690,-82.9260,75.01,1111122 
COMPS,ioos:station:USF.COMPS:C10:1,2015-08-04T13:35:00Z,27.1690,-82.9260,75.09,1111122 
COMPS,ioos:station:USF.COMPS:C10:1,2015-08-04T14:05:00Z,27.1690,-82.9260,75.73,1111122 
COMPS,ioos:station:USF.COMPS:C10:1,2015-08-04T14:35:00Z,27.1690,-82.9260,76.1,1111122 
COMPS,ioos:station:USF.COMPS:C10:1,2015-08-04T15:05:00Z,27.1690,-82.9260,75.66,1111122 
COMPS,ioos:station:USF.COMPS:C10:1,2015-08-04T15:35:00Z,27.1690,-82.9260,75.12,1111122 
COMPS,ioos:station:USF.COMPS:C10:1,2015-08-04T16:05:00Z,27.1690,-82.9260,75.46,1111122 
COMPS,ioos:station:USF.COMPS:C10:1,2015-08-04T16:35:00Z,27.1690,-82.9260,74.28,1111122 
COMPS,ioos:station:USF.COMPS:C10:1,2015-08-04T17:05:00Z,27.1690,-82.9260,74.08,1111122 
COMPS,ioos:station:USF.COMPS:C10:1,2015-08-04T17:35:00Z,27.1690,-82.9260,74.01,1111122 
COMPS,ioos:station:USF.COMPS:C10:1,2015-08-04T18:05:00Z,27.1690,-82.9260,73.36,1111122 
COMPS,ioos:station:USF.COMPS:C10:1,2015-08-04T18:35:00Z,27.1690,-82.9260,72.47,1111122 
COMPS,ioos:station:USF.COMPS:C10:1,2015-08-04T19:05:00Z,27.1690,-82.9260,72.52,1111122 
COMPS,ioos:station:USF.COMPS:C10:1,2015-08-04T19:35:00Z,27.1690,-82.9260,71.55,1111122 
COMPS,ioos:station:USF.COMPS:C10:1,2015-08-04T20:05:00Z,27.1690,-82.9260,69.96,1111122 
COMPS,ioos:station:USF.COMPS:C10:1,2015-08-04T20:35:00Z,27.1690,-82.9260,70.29,1111122 
COMPS,ioos:station:USF.COMPS:C10:1,2015-08-04T21:05:00Z,27.1690,-82.9260,69.94,1111122 
COMPS,ioos:station:USF.COMPS:C10:1,2015-08-04T21:35:00Z,27.1690,-82.9260,75.54,1111122 
COMPS,ioos:station:USF.COMPS:C10:1,2015-08-04T22:05:00Z,27.1690,-82.9260,79.88,1111122 
COMPS,ioos:station:USF.COMPS:C10:1,2015-08-04T22:35:00Z,27.1690,-82.9260,78.31,1111122 
COMPS,ioos:station:USF.COMPS:C10:1,2015-08-05T00:05:00Z,27.1690,-82.9260,77.3,1111122 
COMPS,ioos:station:USF.COMPS:C10:1,2015-08-05T00:35:00Z,27.1690,-82.9260,78.15,1111122 
COMPS,ioos:station:USF.COMPS:C10:1,2015-08-05T04:05:00Z,27.1690,-82.9260,79.2,1111122 
COMPS,ioos:station:USF.COMPS:C10:1,2015-08-05T04:35:00Z,27.1690,-82.9260,78.84,1111122 
COMPS,ioos:station:USF.COMPS:C10:1,2015-08-05T05:05:00Z,27.1690,-82.9260,79.21,1111122 
COMPS,ioos:station:USF.COMPS:C10:1,2015-08-05T05:35:00Z,27.1690,-82.9260,78.9,1111122 
COMPS,ioos:station:USF.COMPS:C10:1,2015-08-05T06:05:00Z,27.1690,-82.9260,79.13,1111122 
COMPS,ioos:station:USF.COMPS:C10:1,2015-08-05T06:35:00Z,27.1690,-82.9260,79.05,1111122 
COMPS,ioos:station:USF.COMPS:C10:1,2015-08-05T07:05:00Z,27.1690,-82.9260,77.31,1111122 
COMPS,ioos:station:USF.COMPS:C10:1,2015-08-05T07:35:00Z,27.1690,-82.9260,77.26,1111122 
COMPS,ioos:station:USF.COMPS:C10:1,2015-08-05T08:05:00Z,27.1690,-82.9260,76.85,1111122 
COMPS,ioos:station:USF.COMPS:C10:1,2015-08-05T08:35:00Z,27.1690,-82.9260,77.39,1111122 
COMPS,ioos:station:USF.COMPS:C10:1,2015-08-05T09:05:00Z,27.1690,-82.9260,76.69,1111122 
COMPS,ioos:station:USF.COMPS:C10:1,2015-08-05T09:35:00Z,27.1690,-82.9260,76.72,1111122 
COMPS,ioos:station:USF.COMPS:C10:1,2015-08-05T10:05:00Z,27.1690,-82.9260,77.44,1111122 
COMPS,ioos:station:USF.COMPS:C10:1,2015-08-05T10:35:00Z,27.1690,-82.9260,77.51,1111122 
COMPS,ioos:station:USF.COMPS:C10:1,2015-08-05T11:05:00Z,27.1690,-82.9260,84.02,1111122 
COMPS,ioos:station:USF.COMPS:C10:1,2015-08-05T11:35:00Z,27.1690,-82.9260,81.75,1111122 
COMPS,ioos:station:USF.COMPS:C10:1,2015-08-05T12:05:00Z,27.1690,-82.9260,77.83,1111122 
COMPS,ioos:station:USF.COMPS:C10:1,2015-08-05T12:35:00Z,27.1690,-82.9260,75.15,1111122 
COMPS,ioos:station:USF.COMPS:C10:1,2015-08-05T13:05:00Z,27.1690,-82.9260,77.1,1111122 
COMPS,ioos:station:USF.COMPS:C10:1,2015-08-05T13:35:00Z,27.1690,-82.9260,73.93,1111122 
COMPS,ioos:station:USF.COMPS:C10:1,2015-08-05T14:05:00Z,27.1690,-82.9260,73.63,1111122 
COMPS,ioos:station:USF.COMPS:C10:1,2015-08-05T14:35:00Z,27.1690,-82.9260,73.67,1111122 
COMPS,ioos:station:USF.COMPS:C10:1,2015-08-05T15:05:00Z,27.1690,-82.9260,72.69,1111122 
COMPS,ioos:station:USF.COMPS:C10:1,2015-08-05T15:35:00Z,27.1690,-82.9260,72.9,1111122 
COMPS,ioos:station:USF.COMPS:C10:1,2015-08-05T16:05:00Z,27.1690,-82.9260,74.44,1111122 
COMPS,ioos:station:USF.COMPS:C10:1,2015-08-05T16:35:00Z,27.1690,-82.9260,76.43,1111122 
COMPS,ioos:station:USF.COMPS:C10:1,2015-08-05T17:05:00Z,27.1690,-82.9260,75.69,1111122 
COMPS,ioos:station:USF.COMPS:C10:1,2015-08-05T17:35:00Z,27.1690,-82.9260,74.62,1111122 
COMPS,ioos:station:USF.COMPS:C10:1,2015-08-05T18:05:00Z,27.1690,-82.9260,71.01,1111122 
COMPS,ioos:station:USF.COMPS:C10:1,2015-08-05T18:35:00Z,27.1690,-82.9260,72.26,1111122 
COMPS,ioos:station:USF.COMPS:C10:1,2015-08-05T19:05:00Z,27.1690,-82.9260,71.99,1111122 
COMPS,ioos:station:USF.COMPS:C10:1,2015-08-05T19:35:00Z,27.1690,-82.9260,73.22,1111122 
COMPS,ioos:station:USF.COMPS:C10:1,2015-08-05T20:05:00Z,27.1690,-82.9260,71.97,1111122 
COMPS,ioos:station:USF.COMPS:C10:1,2015-08-05T20:35:00Z,27.1690,-82.9260,71.07,1111122 
COMPS,ioos:station:USF.COMPS:C10:1,2015-08-05T21:05:00Z,27.1690,-82.9260,71.24,1111122 
COMPS,ioos:station:USF.COMPS:C10:1,2015-08-05T21:35:00Z,27.1690,-82.9260,70.48,1111122 
COMPS,ioos:station:USF.COMPS:C10:1,2015-08-05T22:05:00Z,27.1690,-82.9260,68.87,1111122 
COMPS,ioos:station:USF.COMPS:C10:1,2015-08-05T22:35:00Z,27.1690,-82.9260,66.97,1111122 
COMPS,ioos:station:USF.COMPS:C10:1,2015-08-05T23:05:00Z,27.1690,-82.9260,65.69,1111122 
COMPS,ioos:station:USF.COMPS:C10:1,2015-08-05T23:35:00Z,27.1690,-82.9260,65.99,1111122 
COMPS,ioos:station:USF.COMPS:C10:1,2015-08-06T00:05:00Z,27.1690,-82.9260,66.56,1111122 
COMPS,ioos:station:USF.COMPS:C10:1,2015-08-06T00:35:00Z,27.1690,-82.9260,67.38,1111122 
COMPS,ioos:station:USF.COMPS:C10:1,2015-08-06T01:05:00Z,27.1690,-82.9260,67.01,1111122 
COMPS,ioos:station:USF.COMPS:C10:1,2015-08-06T01:35:00Z,27.1690,-82.9260,68.57,1111122 
COMPS,ioos:station:USF.COMPS:C10:1,2015-08-06T05:05:00Z,27.1690,-82.9260,72.62,1111122 
COMPS,ioos:station:USF.COMPS:C10:1,2015-08-06T05:35:00Z,27.1690,-82.9260,73.25,1111122 
COMPS,ioos:station:USF.COMPS:C10:1,2015-08-06T06:05:00Z,27.1690,-82.9260,74.28,1111122 
COMPS,ioos:station:USF.COMPS:C10:1,2015-08-06T06:35:00Z,27.1690,-82.9260,74.43,1111122 
COMPS,ioos:station:USF.COMPS:C10:1,2015-08-06T07:05:00Z,27.1690,-82.9260,74.56,1111122 
COMPS,ioos:station:USF.COMPS:C10:1,2015-08-06T07:35:00Z,27.1690,-82.9260,74.51,1111122 
COMPS,ioos:station:USF.COMPS:C10:1,2015-08-06T08:05:00Z,27.1690,-82.9260,74.66,1111122 
COMPS,ioos:station:USF.COMPS:C10:1,2015-08-06T08:35:00Z,27.1690,-82.9260,75.77,1111122 
COMPS,ioos:station:USF.COMPS:C10:1,2015-08-06T09:05:00Z,27.1690,-82.9260,76.64,1111122 
COMPS,ioos:station:USF.COMPS:C10:1,2015-08-06T09:35:00Z,27.1690,-82.9260,77.64,1111122 
COMPS,ioos:station:USF.COMPS:C10:1,2015-08-06T10:05:00Z,27.1690,-82.9260,78.21,1111122 
COMPS,ioos:station:USF.COMPS:C10:1,2015-08-06T10:35:00Z,27.1690,-82.9260,79.37,1111122 
COMPS,ioos:station:USF.COMPS:C10:1,2015-08-06T11:05:00Z,27.1690,-82.9260,79.98,1111122 
COMPS,ioos:station:USF.COMPS:C10:1,2015-08-06T11:35:00Z,27.1690,-82.9260,80.71,1111122 
COMPS,ioos:station:USF.COMPS:C10:1,2015-08-06T12:05:00Z,27.1690,-82.9260,79.84,1111122 
COMPS,ioos:station:USF.COMPS:C10:1,2015-08-06T12:35:00Z,27.1690,-82.9260,80.72,1111122 
COMPS,ioos:station:USF.COMPS:C10:1,2015-08-06T13:05:00Z,27.1690,-82.9260,81.7,1111122 
COMPS,ioos:station:USF.COMPS:C10:1,2015-08-06T13:35:00Z,27.1690,-82.9260,80.05,1111122 
COMPS,ioos:station:USF.COMPS:C10:1,2015-08-06T14:05:00Z,27.1690,-82.9260,80.83,1111122 
COMPS,ioos:station:USF.COMPS:C10:1,2015-08-06T14:35:00Z,27.1690,-82.9260,82.44,1111122 
COMPS,ioos:station:USF.COMPS:C10:1,2015-08-06T15:05:00Z,27.1690,-82.9260,82.15,1111122 
COMPS,ioos:station:USF.COMPS:C10:1,2015-08-06T15:35:00Z,27.1690,-82.9260,81.48,1111122 
COMPS,ioos:station:USF.COMPS:C10:1,2015-08-06T16:05:00Z,27.1690,-82.9260,80.87,1111122 
COMPS,ioos:station:USF.COMPS:C10:1,2015-08-06T16:35:00Z,27.1690,-82.9260,82.46,1111122 
COMPS,ioos:station:USF.COMPS:C10:1,2015-08-06T17:05:00Z,27.1690,-82.9260,73.06,1111122 
COMPS,ioos:station:USF.COMPS:C10:1,2015-08-06T17:35:00Z,27.1690,-82.9260,66.46,1111122 
COMPS,ioos:station:USF.COMPS:C10:1,2015-08-06T18:05:00Z,27.1690,-82.9260,72.18,1111122 
COMPS,ioos:station:USF.COMPS:C10:1,2015-08-06T18:35:00Z,27.1690,-82.9260,70.66,1111122 
COMPS,ioos:station:USF.COMPS:C10:1,2015-08-06T19:05:00Z,27.1690,-82.9260,69.41,1111122 
COMPS,ioos:station:USF.COMPS:C10:1,2015-08-06T19:35:00Z,27.1690,-82.9260,74.36,1111122 
COMPS,ioos:station:USF.COMPS:C10:1,2015-08-06T20:05:00Z,27.1690,-82.9260,79.02,1111122 
COMPS,ioos:station:USF.COMPS:C10:1,2015-08-06T20:35:00Z,27.1690,-82.9260,78.01,1111122 
COMPS,ioos:station:USF.COMPS:C10:1,2015-08-06T21:05:00Z,27.1690,-82.9260,78.2,1111122 
COMPS,ioos:station:USF.COMPS:C10:1,2015-08-06T21:35:00Z,27.1690,-82.9260,76.9,1111122 
COMPS,ioos:station:USF.COMPS:C10:1,2015-08-06T22:05:00Z,27.1690,-82.9260,77.0,1111122 
COMPS,ioos:station:USF.COMPS:C10:1,2015-08-06T22:35:00Z,27.1690,-82.9260,76.87,1111122 
COMPS,ioos:station:USF.COMPS:C10:1,2015-08-06T23:05:00Z,27.1690,-82.9260,77.14,1111122 
COMPS,ioos:station:USF.COMPS:C10:1,2015-08-06T23:35:00Z,27.1690,-82.9260,79.29,1111122 
COMPS,ioos:station:USF.COMPS:C10:1,2015-08-07T00:05:00Z,27.1690,-82.9260,79.4,1111122 
COMPS,ioos:station:USF.COMPS:C10:1,2015-08-07T00:35:00Z,27.1690,-82.9260,79.75,1111122 
COMPS,ioos:station:USF.COMPS:C10:1,2015-08-07T01:05:00Z,27.1690,-82.9260,78.94,1111122 
COMPS,ioos:station:USF.COMPS:C10:1,2015-08-07T01:35:00Z,27.1690,-82.9260,79.31,1111122 
COMPS,ioos:station:USF.COMPS:C10:1,2015-08-07T02:05:00Z,27.1690,-82.9260,79.79,1111122 
COMPS,ioos:station:USF.COMPS:C10:1,2015-08-07T02:35:00Z,27.1690,-82.9260,80.67,1111122 
COMPS,ioos:station:USF.COMPS:C10:1,2015-08-07T04:05:00Z,27.1690,-82.9260,80.62,1111122 
COMPS,ioos:station:USF.COMPS:C10:1,2015-08-07T04:35:00Z,27.1690,-82.9260,80.77,1111122 
COMPS,ioos:station:USF.COMPS:C10:1,2015-08-07T05:05:00Z,27.1690,-82.9260,81.42,1111122 
COMPS,ioos:station:USF.COMPS:C10:1,2015-08-07T05:35:00Z,27.1690,-82.9260,81.68,1111122 
COMPS,ioos:station:USF.COMPS:C10:1,2015-08-07T06:05:00Z,27.1690,-82.9260,81.54,1111122 
COMPS,ioos:station:USF.COMPS:C10:1,2015-08-07T06:35:00Z,27.1690,-82.9260,81.23,1111122 
COMPS,ioos:station:USF.COMPS:C10:1,2015-08-07T07:05:00Z,27.1690,-82.9260,81.59,1111122 
COMPS,ioos:station:USF.COMPS:C10:1,2015-08-07T07:35:00Z,27.1690,-82.9260,80.25,1111122 
COMPS,ioos:station:USF.COMPS:C10:1,2015-08-07T08:05:00Z,27.1690,-82.9260,80.31,1111122 
COMPS,ioos:station:USF.COMPS:C10:1,2015-08-07T08:35:00Z,27.1690,-82.9260,80.93,1111122 
COMPS,ioos:station:USF.COMPS:C10:1,2015-08-07T09:05:00Z,27.1690,-82.9260,81.59,1111122 
COMPS,ioos:station:USF.COMPS:C10:1,2015-08-07T09:35:00Z,27.1690,-82.9260,82.56,1111122 
COMPS,ioos:station:USF.COMPS:C10:1,2015-08-07T10:05:00Z,27.1690,-82.9260,82.72,1111122 
COMPS,ioos:station:USF.COMPS:C10:1,2015-08-07T10:35:00Z,27.1690,-82.9260,81.35,1111122 